Regional Weather Roundup
Issued by NWS Midland/Odessa, TX

Home | Current Version | Previous Version | Text Only | Print | Product List | Glossary On
Versions: 1 2 3 4 5 6 7 8 9 10 11 12 13 14 15 16 17 18 19 20 21 22 23 24 25 26 27 28 29 30 31 32 33 34 35 36 37 38 39 40 41 42 43 44 45 46 47 48 49 50
377
ASUS44 KMAF 242001
RWRMAF
MIDLAND AREA WEATHER ROUNDUP
NATIONAL WEATHER SERVICE MIDLAND TX
200 PM CST FRI FEB 24 2017

...IN SOUTHWEST TEXAS AND SOUTHEAST NEW MEXICO...

CITY           SKY/WX    TMP DP  RH WIND       PRES   REMARKS
ALPINE         SUNNY     66  -2   6 W18G32    30.03F
ANDREWS        FAIR      57  19  22 NW3       29.93F
ARTESIA        SUNNY     59   9  13 VRB3      29.89F
BIG SPRING     SUNNY     59  23  24 W10G18    29.95F
CARLSBAD       SUNNY     66  -3   6 W30G38    29.88F
DRYDEN           N/A     79  16   9 N16G25    29.85F
FORT STOCKTON  SUNNY     70   4   7 NW18G31   29.92F
GUAD PASS      SUNNY     57   1  10 SW32G48   29.97F
HOBBS          SUNNY     59   5  11 SW8G18    29.92F
MARFA          SUNNY     64   6  10 W26G37    30.01F
MIDLAND AIRPK  SUNNY     61  20  20 NW9G16    29.94F
MIDLAND INTL   SUNNY     61  18  18 W13       29.93F
ODESSA         SUNNY     63  14  15 NW13      29.93F
PECOS          SUNNY     69   4   8 W24G33    29.91F
PRESIDIO       FAIR      75  14  10 NW5G21    29.95F
SEMINOLE       SUNNY     59  18  19 W7G17     29.93F
SNYDER         SUNNY     55  28  34 CALM      29.93F
WINK           SUNNY     68   4   8 W17G28    29.90F
$$
...OTHER STATIONS IN TEXAS...

CITY           SKY/WX    TMP DP  RH WIND       PRES   REMARKS
ABILENE        SUNNY     53  29  39 NW10      29.93F
AMARILLO       SUNNY     44  16  32 NW15      29.95S WCI  37
AUSTIN         SUNNY     80  37  21 NW10G22   29.80F
BROWNSVILLE    SUNNY     92  52  25 N24G32    29.71F
CORPUS CHRISTI SUNNY     87  50  27 N23G32    29.74F
DALLAS FTW     MOSUNNY   60  33  36 NW13G23   29.85F
DEL RIO        SUNNY     83  21  10 N10G21    29.81F
EL PASO        SUNNY     60  -1   8 W22G35    29.96F
HOUSTON INT    MOSUNNY   82  59  45 NW12      29.76F
LUBBOCK        MOSUNNY   52  21  29 NW12      29.92F
SAN ANGELO     SUNNY     66  30  26 N7        29.91F
SAN ANTONIO    SUNNY     81  29  15 N20G25    29.82F
WACO           SUNNY     64  43  46 N16       29.86F
WICHITA FALLS  NOT AVBL
$$
...OTHER LOCATIONS IN NEW MEXICO...

CITY           SKY/WX    TMP DP  RH WIND       PRES   REMARKS
ALAMAGORDO     SUNNY     54   3  13 SW5       29.99F
ALBUQUERQUE    MOSUNNY   44   0  16 W13G26    29.95F WCI  38
CANNON AFB     NOT AVBL
CLOVIS         SUNNY     54  18  24 W24G33    29.89F
HOLLOMAN AFB   SUNNY     55   4  13 CALM      30.01F
ROSWELL        SUNNY     60   5  11 S8          N/A
RUIDOSO        SUNNY     43   0  16 W15G24    29.95F WCI  35
SANTA FE       SUNNY     39  -2  17 W26G37    29.90F WCI  28
TRUTH OR CONSE SUNNY     53   2  12 VRB6      29.94F
TUCUMCARI      SUNNY     49  16  26 E9        29.87F
$$




USA.gov is the U.S. government's official web portal to all federal, state and local government web resources and services.